When you browse on this site, cookies collect data to enhance your experience and personalize the content and advertising you see.
Visit our Privacy Policy to learn more. By continuing to use the site, you agree to this use of cookies and data.
  • In Hungary
  • List of Countries
  • For 7 days
  • Water Temperature
  • Weather Map
  • News
  • Weather Widgets
  • user-avatar
    Login

    Hourly Weather Xocasan

    Today, 8 December, Sunday

    Time Temperature Precipitation Wind Pressure Humidity
    00:00 +8°C° 0 mm 4 mps 763 mmHg 78%
    01:00 +8°C° 0 mm 4 mps 763 mmHg 78%
    02:00 +8°C° 0 mm 4 mps 762 mmHg 78%
    03:00 +7°C° 0 mm 4 mps 762 mmHg 78%
    04:00 +7°C° 0 mm 4 mps 761 mmHg 77%
    05:00 +7°C° 0 mm 4 mps 761 mmHg 77%
    06:00 +7°C° 0 mm 4 mps 761 mmHg 77%
    07:00 +8°C° 0 mm 4 mps 760 mmHg 75%
    08:00 +8°C° 0 mm 4 mps 760 mmHg 73%
    09:00 +8°C° 0 mm 4 mps 760 mmHg 70%
    10:00 +10°C° 0 mm 4 mps 760 mmHg 68%
    11:00 +10°C° 0 mm 4 mps 759 mmHg 66%
    12:00 +11°C° 0 mm 3 mps 759 mmHg 64%
    13:00 +11°C° 0 mm 3 mps 758 mmHg 64%
    14:00 +10°C° 0 mm 3 mps 757 mmHg 65%
    15:00 +10°C° 0 mm 3 mps 757 mmHg 68%
    16:00 +10°C° 0.2 mm 3 mps 757 mmHg 71%
    17:00 +10°C° 0.2 mm 3 mps 757 mmHg 75%
    18:00 +9°C° 0.2 mm 3 mps 757 mmHg 79%
    19:00 +9°C° 0.5 mm 3 mps 757 mmHg 79%
    20:00 +9°C° 0.5 mm 2 mps 757 mmHg 78%
    21:00 +9°C° 0.5 mm 2 mps 757 mmHg 77%
    22:00 +9°C° 0.8 mm 3 mps 757 mmHg 80%
    23:00 +7°C° 0.8 mm 4 mps 757 mmHg 83%

    Tomorrow, 9 December, Monday

    Time Temperature Precipitation Wind Pressure Humidity
    00:00 +7°C° 0.8 mm 5 mps 757 mmHg 85%
    01:00 +7°C° 0.8 mm 5 mps 757 mmHg 86%
    02:00 +7°C° 0.8 mm 5 mps 757 mmHg 87%
    03:00 +7°C° 0.8 mm 5 mps 758 mmHg 88%
    04:00 +7°C° 0.7 mm 5 mps 758 mmHg 88%
    05:00 +7°C° 0.7 mm 6 mps 758 mmHg 88%
    06:00 +7°C° 0.7 mm 6 mps 758 mmHg 89%
    07:00 +6°C° 0.9 mm 8 mps 759 mmHg 86%
    08:00 +6°C° 0.9 mm 10 mps 759 mmHg 84%
    09:00 +4°C° 0.9 mm 11 mps 760 mmHg 82%
    10:00 +6°C° 0.1 mm 11 mps 760 mmHg 76%
    11:00 +6°C° 0.1 mm 10 mps 760 mmHg 71%
    12:00 +7°C° 0.1 mm 9 mps 760 mmHg 65%
    13:00 +7°C° 0 mm 9 mps 760 mmHg 65%
    14:00 +7°C° 0 mm 8 mps 760 mmHg 66%
    15:00 +7°C° 0 mm 8 mps 761 mmHg 66%
    16:00 +8°C° 0 mm 7 mps 761 mmHg 67%
    17:00 +8°C° 0 mm 7 mps 761 mmHg 69%
    18:00 +7°C° 0 mm 6 mps 761 mmHg 70%
    19:00 +7°C° 0 mm 6 mps 762 mmHg 72%
    20:00 +7°C° 0 mm 6 mps 762 mmHg 73%
    21:00 +7°C° 0 mm 5 mps 762 mmHg 75%
    22:00 +7°C° 0 mm 5 mps 762 mmHg 76%
    23:00 +7°C° 0 mm 4 mps 762 mmHg 77%

    Day after tomorrow, 10 December, Tuesday

    Time Temperature Precipitation Wind Pressure Humidity
    00:00 +7°C° 0 mm 4 mps 762 mmHg 79%
    01:00 +7°C° 0 mm 4 mps 762 mmHg 79%
    02:00 +7°C° 0 mm 4 mps 762 mmHg 80%
    03:00 +7°C° 0 mm 4 mps 762 mmHg 80%
    04:00 +8°C° 0 mm 3 mps 762 mmHg 80%
    05:00 +8°C° 0 mm 3 mps 763 mmHg 80%
    06:00 +8°C° 0 mm 3 mps 763 mmHg 80%
    07:00 +8°C° 0 mm 2 mps 763 mmHg 79%
    08:00 +8°C° 0 mm 2 mps 763 mmHg 78%
    09:00 +9°C° 0 mm 1 mps 764 mmHg 77%
    10:00 +10°C° 0 mm 1 mps 763 mmHg 75%
    11:00 +10°C° 0 mm 1 mps 763 mmHg 72%
    12:00 +10°C° 0 mm 1 mps 763 mmHg 70%
    13:00 +11°C° 0 mm 1 mps 763 mmHg 71%
    14:00 +11°C° 0 mm 1 mps 762 mmHg 71%
    15:00 +11°C° 0 mm 1 mps 762 mmHg 71%
    16:00 +11°C° 0 mm 1 mps 762 mmHg 74%
    17:00 +10°C° 0 mm 1 mps 762 mmHg 77%
    18:00 +10°C° 0 mm 1 mps 762 mmHg 81%
    19:00 +10°C° 0.1 mm 1 mps 762 mmHg 81%
    20:00 +10°C° 0.1 mm 1 mps 762 mmHg 81%
    21:00 +10°C° 0.1 mm 1 mps 762 mmHg 82%
    22:00 +10°C° 0.2 mm 1 mps 762 mmHg 83%
    23:00 +10°C° 0.2 mm 1 mps 762 mmHg 84%

    11 December, Wednesday

    Time Temperature Precipitation Wind Pressure Humidity
    00:00 +10°C° 0.2 mm 1 mps 762 mmHg 85%
    01:00 +8°C° 0.4 mm 2 mps 762 mmHg 86%
    02:00 +8°C° 0.4 mm 2 mps 762 mmHg 87%
    03:00 +8°C° 0.4 mm 2 mps 762 mmHg 88%
    04:00 +8°C° 0.1 mm 3 mps 762 mmHg 86%
    05:00 +8°C° 0.1 mm 3 mps 761 mmHg 85%
    06:00 +8°C° 0.1 mm 3 mps 761 mmHg 84%
    07:00 +8°C° 0 mm 3 mps 762 mmHg 81%
    08:00 +8°C° 0 mm 4 mps 762 mmHg 78%
    09:00 +8°C° 0 mm 4 mps 762 mmHg 75%
    10:00 +8°C° 0 mm 4 mps 762 mmHg 74%
    11:00 +8°C° 0 mm 4 mps 762 mmHg 72%
    12:00 +8°C° 0 mm 4 mps 761 mmHg 70%
    13:00 +8°C° 0 mm 4 mps 761 mmHg 71%
    14:00 +8°C° 0 mm 5 mps 761 mmHg 72%
    15:00 +8°C° 0 mm 5 mps 761 mmHg 73%
    16:00 +8°C° 0 mm 5 mps 762 mmHg 74%
    17:00 +8°C° 0 mm 5 mps 762 mmHg 74%
    18:00 +7°C° 0 mm 5 mps 762 mmHg 75%
    19:00 +7°C° 0 mm 4 mps 762 mmHg 74%
    20:00 +7°C° 0 mm 4 mps 762 mmHg 74%
    21:00 +7°C° 0 mm 4 mps 762 mmHg 74%
    22:00 +8°C° 0 mm 3 mps 762 mmHg 75%
    23:00 +8°C° 0 mm 2 mps 762 mmHg 75%

    12 December, Thursday

    Time Temperature Precipitation Wind Pressure Humidity
    00:00 +7°C° 0 mm 2 mps 762 mmHg 76%
    01:00 +8°C° 0 mm 1 mps 762 mmHg 77%
    02:00 +8°C° 0 mm 1 mps 762 mmHg 78%
    03:00 +8°C° 0 mm 1 mps 762 mmHg 79%
    04:00 +7°C° 0 mm 1 mps 762 mmHg 80%
    05:00 +7°C° 0 mm 1 mps 762 mmHg 81%
    06:00 +7°C° 0 mm 1 mps 762 mmHg 81%
    07:00 +8°C° 0 mm 1 mps 762 mmHg 78%
    08:00 +8°C° 0 mm 1 mps 762 mmHg 75%
    09:00 +8°C° 0 mm 2 mps 762 mmHg 73%
    10:00 +9°C° 0 mm 3 mps 761 mmHg 69%
    11:00 +9°C° 0 mm 3 mps 761 mmHg 66%
    12:00 +10°C° 0 mm 4 mps 760 mmHg 62%
    13:00 +10°C° 0 mm 4 mps 760 mmHg 63%
    14:00 +10°C° 0 mm 4 mps 760 mmHg 64%
    15:00 +11°C° 0 mm 4 mps 760 mmHg 65%
    16:00 +10°C° 0 mm 3 mps 759 mmHg 69%
    17:00 +9°C° 0 mm 3 mps 759 mmHg 72%
    18:00 +9°C° 0 mm 3 mps 759 mmHg 76%
    19:00 +8°C° 0 mm 3 mps 759 mmHg 77%
    20:00 +7°C° 0 mm 4 mps 759 mmHg 78%
    21:00 +7°C° 0 mm 4 mps 759 mmHg 78%
    22:00 +7°C° 0 mm 5 mps 759 mmHg 80%
    23:00 +7°C° 0 mm 6 mps 759 mmHg 82%

    13 December, Friday

    Time Temperature Precipitation Wind Pressure Humidity
    00:00 +6°C° 0 mm 7 mps 759 mmHg 84%
    01:00 +6°C° 0 mm 7 mps 758 mmHg 82%
    02:00 +6°C° 0 mm 7 mps 758 mmHg 80%
    03:00 +5°C° 0 mm 7 mps 758 mmHg 78%
    04:00 +5°C° 0 mm 7 mps 758 mmHg 79%
    05:00 +5°C° 0 mm 7 mps 758 mmHg 80%
    06:00 +5°C° 0 mm 7 mps 758 mmHg 81%
    07:00 +5°C° 0 mm 7 mps 758 mmHg 79%
    08:00 +5°C° 0 mm 7 mps 759 mmHg 76%
    09:00 +5°C° 0 mm 7 mps 759 mmHg 73%
    10:00 +5°C° 0 mm 7 mps 758 mmHg 72%
    11:00 +5°C° 0 mm 6 mps 758 mmHg 70%
    12:00 +5°C° 0 mm 6 mps 758 mmHg 69%
    13:00 +5°C° 0 mm 6 mps 758 mmHg 67%
    14:00 +5°C° 0 mm 6 mps 758 mmHg 65%
    15:00 +5°C° 0 mm 6 mps 757 mmHg 64%
    16:00 +5°C° 0 mm 6 mps 758 mmHg 67%
    17:00 +5°C° 0 mm 6 mps 758 mmHg 71%
    18:00 +5°C° 0 mm 6 mps 758 mmHg 74%
    19:00 +5°C° 0 mm 6 mps 758 mmHg 73%
    20:00 +6°C° 0 mm 5 mps 758 mmHg 71%
    21:00 +6°C° 0 mm 5 mps 758 mmHg 70%
    22:00 +6°C° 0 mm 4 mps 758 mmHg 71%
    23:00 +5°C° 0 mm 4 mps 758 mmHg 71%
    Show more